{"data":{"norad_id":37191,"intl_designator":"2010-054D","name":"GLOBALSTAR M077","alt_names":[],"object_type":"PAYLOAD","status":"ACTIVE","operator":null,"country":"GLOB","launch_date":"2010-10-19","launch_site_code":"TYMSC","launch_vehicle":null,"mission":null,"orbit_class":"UNKNOWN","rcs_meters":4.7854,"size_class":null,"mass_kg":null,"dimensions":null,"purposes":["comms"],"wikipedia_slug":null,"has_3d_model":false,"image_url":null,"decayed_at":null,"tle_current":{"epoch":"2026-09-20T03:29:11.977728Z","epoch_age_seconds":45009,"freshness":"FRESH","line1":"1 37191U 10054D   26263.14527752 -.00000083  00000+0 -85043-4 0  9999","line2":"2 37191  51.9964 298.2804 0002639 355.3417  38.2228 11.67547817732237","mean_motion":11.67547817,"eccentricity":0.0002639,"inclination_deg":51.9964,"raan_deg":298.2804,"arg_perigee_deg":355.3417,"mean_anomaly_deg":38.2228,"bstar":-8.5043e-5,"rev_number":73223,"period_min":123.33541967472,"perigee_km":1827.3450248873,"apogee_km":1831.677021514,"semimajor_km":8207.6480232007,"source":"CELESTRAK","updated_at":"2026-09-20T09:00:45.037401Z"}}}